Temp_Advection
nan nan nan nan nan nan nan nan nan nan nan nan nan nan nan nan nan nan nan nan nan nan nan nan nan nan nan nan nan nan nan nan nan nan nan nan nan nan nan nan nan nan nan nan nan
nan -0 -0 0 -0 0 0 0 -0 -0 0 -0 -0 -0 0 0 0 0 -0 -0 -0 0 -0 -0 -0 -1 -1 -1 -0 -1 -0 0 0 -0 -0 -0 0 -0 -0 -0 -0 -0 -0 0 nan
nan -0 -0 -0 -0 -0 0 0 -0 -0 -0 -0 -0 -0 0 0 -0 -0 0 -0 0 0 -0 0 -0 -1 -1 -0 -0 -0 -0 -0 -0 -0 -0 0 0 -0 -0 -0 0 -0 -1 -1 nan
nan -0 -0 -0 -0 -0 -0 -0 -0 -0 -0 -0 -0 -0 -0 0 -0 -0 0 0 0 0 0 -0 -1 -1 -1 -0 -0 -0 -0 -0 -0 0 -0 -0 0 -0 -0 -0 -0 0 -0 -1 nan
nan -0 -0 -0 -0 -0 -0 -0 -0 -0 -0 -0 -0 -0 -0 -0 0 0 0 -0 0 0 -0 -0 -0 -0 -0 0 -0 -0 -0 0 0 0 0 -0 -0 0 0 0 -0 -0 -0 -0 nan
nan -0 -0 -0 -0 -0 -0 -0 -0 -0 -0 -0 -0 -0 -0 -0 0 0 0 -0 -0 0 0 0 -0 -0 -0 -0 -0 -0 -0 -0 -0 -0 -0 -0 0 0 0 1 -0 -0 -0 -0 nan
nan -0 -0 -0 -0 -0 -0 -0 -0 -0 -0 -0 -0 -0 -0 -0 0 0 0 0 -0 0 0 -0 -0 -0 -0 0 0 -0 -1 -0 -0 0 0 0 0 -0 0 0 -0 -1 -0 -0 nan
nan -0 -0 -0 -0 -0 -0 -0 -0 -0 -0 -0 -0 -0 -0 0 0 0 0 -0 0 0 -0 -0 -0 -0 -0 -0 -0 -0 0 0 0 -0 -0 0 -0 -0 -0 -0 -0 -0 -0 -0 nan
nan -0 -0 -0 -0 -0 -0 -0 -0 -0 -0 -0 0 -0 -0 0 0 0 -0 -0 -0 -0 -0 -0 -0 -0 -0 -1 -0 0 0 0 -0 0 0 -0 -0 -0 0 -0 -0 0 0 -0 nan
nan -0 -0 -0 -0 -0 -0 -0 -0 -0 -0 0 -0 -0 -0 0 0 -0 -0 0 -0 -0 -0 -0 -1 -1 -0 0 0 0 0 0 -0 -0 -0 0 -0 0 0 0 0 0 0 -0 nan
nan -0 -0 -0 -0 -0 -0 -0 -0 0 -0 -1 -0 0 -0 0 -0 -0 -0 -0 -0 -1 -0 -0 -0 -0 -0 0 0 -0 0 -0 -0 -0 -0 -0 -0 -0 -0 0 -0 0 0 -0 nan
nan -0 -0 -0 -0 -0 -0 -0 -0 -0 -0 0 0 -0 -0 -0 -0 -0 -0 -0 -0 -0 0 -0 -0 -0 -0 0 0 -0 -0 -0 0 -0 -0 -0 -0 -0 -0 -0 0 0 -0 0 nan
nan -0 -0 -0 -0 0 0 0 -0 -0 -1 -0 -0 -0 0 -1 -1 -0 -0 -0 -0 -0 -0 -1 -0 0 0 0 -0 -0 -0 0 -0 0 -0 -0 0 -0 -0 -0 0 0 0 1 nan
nan -0 -0 -0 -0 0 0 -0 -0 -0 -1 -0 -0 0 0 -0 -0 0 -0 -0 -0 -0 0 -0 0 0 -0 -0 -0 -0 -0 0 0 -0 -0 -0 -0 -0 -0 -0 -0 -0 0 0 nan
nan -0 -0 -0 0 0 -0 -0 -0 -0 -1 0 -0 -0 -0 -0 -0 0 0 -0 -0 0 -0 0 0 -0 -0 -0 0 -0 0 0 0 -0 -0 0 -0 0 -0 -0 -0 -0 0 0 nan
nan -0 -0 -0 0 -0 -0 0 -0 -1 -0 0 -0 -0 -1 -0 -0 -0 -0 -0 -0 0 -0 -0 -0 -0 -0 -0 0 0 0 0 0 0 0 0 -0 0 -0 -0 -0 -0 -0 -0 nan
nan -0 -0 -0 -0 -0 0 -0 -1 -0 0 0 0 -0 -0 -0 -0 -0 -0 -0 -0 0 -0 -0 -0 -0 0 -0 0 -0 -0 0 0 0 0 0 -0 -0 -0 -0 -0 0 -0 -0 nan
nan -0 -0 -0 -0 0 -0 -1 -0 -0 0 0 -0 0 -0 0 0 0 -0 -0 -0 -0 0 0 -0 -0 -0 -0 -0 0 0 1 0 -0 0 -0 -0 0 -0 -0 -0 0 -0 -0 nan
nan -0 -0 -0 -0 0 -1 -0 -0 0 -0 -0 -0 -0 0 0 -0 0 -0 -0 0 0 -0 -0 -0 -0 0 0 0 -0 -0 -0 0 0 -0 0 0 0 -0 -0 -0 -0 -0 -0 nan
nan -0 -0 -0 0 -0 -1 -1 0 0 -0 -0 -0 -0 -0 0 0 -0 -0 -0 -0 -0 -0 -0 -0 0 0 0 0 -0 -0 0 0 0 -0 0 -0 -0 -0 -0 -0 -0 -0 -0 nan
nan -0 0 0 -0 -1 -1 0 0 0 -0 -0 -0 -0 -0 0 -0 -0 -0 -0 -0 -0 0 0 0 0 0 -0 -0 0 0 -0 0 0 0 -0 -0 0 -0 -0 0 -0 -0 -0 nan
nan 0 -0 1 -1 -0 0 0 -0 -0 -0 -0 -0 -0 -0 -0 -0 -0 -0 0 0 0 0 -0 0 0 -0 -0 -0 -0 -0 0 1 0 -0 -0 0 -0 -0 -0 0 -0 -0 -0 nan
nan -0 -0 0 -0 0 0 0 -0 -0 -0 -0 -0 -0 -0 -0 -0 -0 0 -0 0 0 1 0 0 0 -0 0 -0 0 0 0 0 0 0 -0 0 0 -0 -0 -0 0 0 0 nan
nan -0 -0 -0 0 -0 0 0 0 0 -0 -0 -0 -0 -0 -0 -0 -0 -0 -0 0 1 -0 -0 0 -0 -0 -0 -0 -0 -0 0 0 -0 -0 -0 0 0 -0 -0 -0 -0 0 -0 nan
nan 0 -0 0 0 0 0 0 -0 -0 0 -0 -0 -1 -0 -0 -0 -0 -0 0 -0 0 -1 -0 0 -1 -0 -0 0 0 -0 0 -0 -0 -0 -0 0 -1 -0 -0 -0 -0 -0 -0 nan
nan -0 0 0 0 0 -0 -0 -0 0 -0 -0 -0 -0 0 -0 -0 -0 -0 0 0 -0 -0 0 -0 -0 -0 -0 0 0 0 -0 -0 -0 -0 0 -0 -1 -0 -0 0 0 -0 -0 nan
nan nan nan nan nan nan nan nan nan nan nan nan nan nan nan nan nan nan nan nan nan nan nan nan nan nan nan nan nan nan nan nan nan nan nan nan nan nan nan nan nan nan nan nan nan
Wind_Speed
6 6 7 8 9 8 10 10 10 10 10 10 10 9 8 6 3 2 2 4 5 3 1 4 8 8 11 7 7 6 6 1 7 1 5 8 8 4 3 5 5 3 4 8 17
6 7 8 9 9 9 10 11 11 11 11 11 11 10 9 5 4 2 2 3 6 5 3 8 10 12 9 8 4 8 8 5 4 4 7 3 8 8 6 6 7 6 7 16 17
7 8 9 8 9 10 10 11 11 11 11 11 11 10 8 3 4 2 3 2 4 4 6 8 9 12 15 8 5 2 2 2 1 5 6 3 9 9 9 5 6 8 15 19 18
8 9 9 10 9 10 11 11 12 12 11 11 11 10 6 3 1 2 4 1 3 3 3 5 8 13 12 8 2 8 1 1 3 3 3 3 5 10 10 3 4 8 17 21 20
9 10 10 11 10 11 12 12 12 12 12 11 11 10 5 3 2 1 2 5 4 3 0 2 5 5 10 2 3 7 2 2 4 3 5 5 7 8 9 7 3 13 19 18 17
11 10 11 11 11 11 12 13 12 12 12 11 10 10 7 6 4 1 2 4 2 2 2 1 1 2 4 3 7 3 4 3 2 2 4 7 8 9 7 10 10 16 19 17 16
11 11 11 12 12 11 12 13 12 12 12 11 10 9 7 5 4 5 2 5 3 0 1 2 3 4 2 6 2 5 10 7 4 2 5 7 8 10 8 13 14 17 19 19 18
12 11 11 11 12 12 12 13 12 12 11 10 9 8 6 5 6 7 3 3 5 2 2 2 2 5 5 3 5 6 7 10 9 5 2 9 11 6 9 13 14 18 19 19 18
12 12 12 11 11 11 12 13 12 11 10 9 7 3 4 2 3 5 6 4 4 4 4 4 2 4 5 11 10 10 9 2 2 3 6 9 13 9 5 12 12 15 15 18 19
12 12 12 11 10 10 10 11 10 10 10 9 9 6 6 4 3 5 7 5 5 5 6 7 7 9 9 11 12 9 9 4 5 6 9 8 12 2 3 6 7 12 17 18 19
12 11 11 11 9 9 7 6 6 4 5 8 1 5 0 2 2 6 7 7 6 8 10 3 9 12 17 11 5 3 7 7 4 3 7 5 6 2 2 3 5 10 17 19 17
11 10 10 9 7 5 4 1 1 3 8 10 14 15 12 6 4 8 9 9 9 11 5 6 11 3 1 4 6 9 11 9 3 2 6 5 2 4 3 4 3 10 15 21 21
11 9 8 8 6 3 2 1 1 4 7 6 9 9 7 11 8 9 13 11 9 10 11 13 4 3 7 8 10 14 14 5 8 0 5 8 9 7 4 3 5 7 14 18 19
10 9 6 5 2 4 3 2 2 2 5 9 6 4 7 7 8 12 13 9 7 9 5 9 7 7 8 11 13 14 9 4 5 7 3 4 10 9 3 4 5 2 8 12 14
10 8 6 4 4 4 7 4 1 2 5 5 6 2 5 14 5 13 15 11 8 7 6 4 10 12 10 12 11 1 5 6 6 6 6 6 8 4 4 5 5 3 3 4 9
10 8 6 5 6 8 8 3 1 6 6 5 4 7 9 15 8 6 14 11 6 5 7 7 1 5 8 3 7 8 8 6 6 6 11 5 5 6 4 6 4 1 3 6 9
10 9 7 7 4 10 9 5 6 9 3 7 4 5 10 11 14 10 15 16 10 9 12 12 12 8 8 8 7 12 10 8 6 8 3 5 5 5 5 5 5 2 3 6 9
10 9 8 8 10 11 9 7 9 3 5 2 2 5 7 10 14 12 13 14 16 9 3 9 12 15 12 13 9 16 11 8 4 4 3 4 6 5 4 3 2 2 3 6 7
10 7 6 8 11 14 12 11 7 4 2 3 6 7 8 9 5 15 15 15 13 14 8 8 10 6 4 5 8 8 10 5 5 1 7 5 4 7 6 4 5 4 5 5 6
6 2 2 7 12 12 10 13 4 3 3 3 7 1 5 7 11 11 13 12 13 15 17 3 6 10 8 7 4 6 8 6 8 5 7 7 3 3 4 4 5 4 4 6 6
1 4 2 7 13 11 10 10 5 3 3 3 1 3 3 3 9 11 8 7 16 14 18 12 8 9 6 12 13 7 9 7 4 5 3 5 6 3 1 3 2 4 6 9 8
2 3 4 13 10 6 9 3 1 5 4 3 4 4 3 2 4 7 10 6 3 13 16 13 9 10 13 7 3 7 11 12 10 10 6 7 6 5 3 4 1 7 10 8 5
1 2 5 10 5 8 4 6 4 5 4 4 4 3 2 3 4 6 3 1 4 11 10 12 9 9 11 8 5 8 10 11 5 2 7 8 6 7 2 4 4 8 9 8 5
2 4 5 5 0 3 5 7 7 6 9 10 8 6 8 9 5 5 6 5 4 11 2 8 13 13 11 13 6 9 12 13 15 8 11 11 7 8 6 6 6 7 7 6 8
2 2 2 5 7 4 4 0 6 6 9 5 8 14 12 7 10 10 8 7 6 5 6 10 12 16 15 3 5 7 12 13 13 12 8 6 7 8 4 4 2 8 10 10 8
2 2 2 3 2 6 4 5 7 6 6 9 11 7 7 13 12 9 5 4 6 7 8 9 10 14 17 13 13 9 8 11 9 6 4 2 5 4 3 4 7 8 8 7 5
3 3 2 5 5 6 3 1 1 2 10 14 6 7 11 8 12 8 9 4 3 6 9 8 11 9 16 9 12 14 13 14 12 10 5 7 8 3 4 7 7 6 3 3 4
Wind_Direction
2 358 356 1 358 351 350 354 351 352 350 349 347 345 345 332 313 243 239 216 257 268 210 187 188 201 197 243 241 282 247 131 72 300 78 139 188 171 167 144 176 126 95 124 151
353 346 345 355 345 343 345 343 344 342 346 346 345 347 350 360 106 135 235 232 248 268 183 182 196 186 207 231 229 251 285 38 25 354 333 140 234 167 191 179 200 147 120 144 149
340 342 336 339 336 336 339 335 335 335 340 343 343 347 352 77 151 78 11 233 236 244 203 189 196 201 231 226 214 192 297 74 87 350 328 293 211 192 220 200 210 188 159 160 161
329 332 329 327 331 330 331 328 327 328 333 338 340 345 353 119 189 18 7 199 194 191 187 207 209 211 229 215 219 244 104 265 350 310 291 258 209 204 225 64 79 175 171 168 167
321 323 322 322 324 326 322 322 320 323 326 332 335 342 1 240 119 13 43 117 111 67 288 194 220 229 236 210 240 240 120 256 271 269 275 248 231 234 226 231 158 150 162 176 171
314 315 319 317 318 320 315 313 313 317 318 324 327 333 334 250 188 164 135 151 101 53 28 67 13 308 273 255 275 330 275 271 222 129 223 240 235 219 223 195 164 157 171 173 181
308 310 313 313 314 313 308 304 309 310 312 314 317 324 302 271 203 187 173 194 202 63 145 37 352 282 269 211 271 256 258 207 125 26 271 236 213 222 217 186 177 172 174 172 191
309 308 309 308 308 309 305 302 304 305 304 303 306 319 278 262 212 209 219 235 233 272 283 276 333 280 261 285 222 248 252 252 88 357 76 239 286 98 162 185 183 184 176 174 188
310 310 308 307 305 306 303 303 303 299 296 295 301 302 260 272 195 210 207 212 218 255 270 272 268 262 226 233 221 210 259 233 344 46 335 232 281 60 189 197 191 194 185 181 185
309 309 309 309 307 304 301 305 303 292 282 286 268 262 228 170 183 194 207 201 217 229 230 233 240 236 218 232 236 224 232 223 278 4 317 267 256 252 192 208 186 192 198 193 190
309 308 307 307 307 305 303 327 295 254 258 253 346 279 341 255 225 197 191 193 218 234 236 196 242 218 223 233 344 325 271 278 280 14 300 351 291 42 91 178 169 197 203 203 197
308 309 307 303 301 295 313 20 326 275 299 254 248 253 251 249 244 201 179 200 209 233 205 226 232 89 22 187 213 228 250 259 251 342 270 345 90 90 78 71 265 225 204 212 194
310 310 308 302 293 244 128 181 337 339 258 232 230 243 229 213 225 202 188 207 220 224 223 250 95 176 212 185 214 235 253 220 278 150 235 312 215 152 92 59 324 263 219 218 196
313 309 302 290 283 217 193 233 323 338 262 158 192 203 205 200 230 208 197 197 207 240 217 243 191 222 207 233 225 239 209 221 232 261 265 358 301 129 131 92 30 25 199 209 187
317 308 292 233 223 171 209 220 275 300 260 101 152 199 195 198 109 191 194 203 225 185 217 142 208 204 226 232 210 352 146 208 209 240 280 183 280 119 150 132 28 43 169 161 175
314 304 288 255 227 209 187 197 171 230 230 155 160 185 182 203 195 152 186 212 238 214 225 276 218 242 236 120 219 141 147 174 217 256 248 99 277 141 18 7 24 87 162 156 166
307 297 273 238 205 192 182 168 217 240 122 164 170 186 213 189 209 196 187 194 202 202 217 210 218 206 226 192 176 205 201 231 227 215 254 99 249 350 35 18 350 325 151 159 165
307 293 268 237 208 187 180 211 232 256 210 101 228 230 225 187 216 195 194 201 220 232 287 212 200 207 194 237 201 209 233 265 225 233 168 128 237 111 69 40 76 150 130 147 158
313 292 259 227 198 184 200 212 215 223 318 262 243 243 187 200 257 204 216 218 204 216 235 208 231 176 201 205 233 165 219 327 274 210 271 146 134 212 132 131 139 151 152 143 157
319 202 235 213 190 179 216 232 228 271 319 245 252 245 236 187 199 199 201 226 221 214 231 127 242 195 152 173 146 268 152 191 223 206 251 151 230 288 188 153 162 158 152 130 130
157 203 289 170 165 196 215 215 233 238 274 292 255 252 268 225 238 204 196 199 208 193 213 233 252 155 189 208 205 179 209 244 321 317 283 210 191 49 62 45 215 152 145 137 120
168 214 166 152 193 205 219 227 247 222 208 254 286 285 288 302 241 230 221 233 174 191 197 211 225 245 213 109 329 294 260 212 233 181 246 306 112 113 60 81 116 142 149 144 131
156 105 160 170 213 209 149 212 251 232 219 238 256 244 322 288 286 239 221 51 187 201 208 185 225 221 227 195 182 227 209 232 245 282 183 229 129 116 112 100 112 134 153 158 143
235 178 155 199 108 277 206 221 228 210 253 259 273 270 258 265 228 285 237 170 200 230 55 223 233 233 242 219 192 193 203 207 208 203 169 225 114 142 56 44 121 148 153 156 156
315 79 344 177 194 213 234 160 230 228 220 228 238 241 253 265 241 234 234 210 188 185 219 224 228 228 244 246 248 244 191 196 221 235 232 217 195 83 38 11 95 135 136 133 143
330 311 195 129 172 223 160 211 257 241 236 214 234 240 232 237 258 337 309 231 223 172 194 216 230 227 233 226 239 232 208 196 211 219 214 245 138 75 62 106 137 141 139 132 143
59 39 292 142 186 227 147 190 268 265 235 249 263 277 259 265 266 293 289 289 310 257 200 200 214 213 231 205 219 227 214 211 200 192 218 214 78 112 107 114 129 144 148 123 126
Height
1545 1544 1543 1542 1540 1540 1538 1536 1534 1533 1532 1530 1529 1527 1525 1524 1524 1525 1526 1526 1526 1527 1529 1529 1528 1529 1530 1529 1527 1524 1512 1515 1513 1513 1510 1512 1516 1522 1523 1526 1529 1532 1534 1537 1540
1544 1544 1543 1541 1541 1539 1537 1536 1534 1533 1531 1529 1527 1525 1524 1523 1523 1525 1525 1524 1525 1525 1527 1529 1530 1529 1528 1525 1524 1519 1508 1512 1512 1511 1509 1511 1515 1519 1523 1524 1528 1532 1535 1538 1541
1544 1543 1542 1541 1540 1539 1537 1536 1534 1532 1530 1528 1526 1524 1523 1522 1523 1525 1523 1522 1523 1524 1525 1527 1528 1528 1524 1521 1519 1515 1510 1513 1513 1514 1513 1510 1515 1518 1519 1520 1523 1528 1533 1537 1540
1543 1542 1541 1540 1539 1537 1536 1535 1533 1531 1529 1527 1526 1524 1523 1522 1520 1523 1522 1521 1522 1523 1525 1526 1526 1524 1518 1516 1518 1514 1514 1515 1512 1514 1514 1512 1512 1515 1517 1517 1523 1527 1532 1536 1538
1542 1541 1540 1539 1538 1536 1534 1532 1532 1530 1528 1526 1524 1523 1522 1522 1522 1521 1522 1522 1523 1524 1525 1524 1523 1521 1515 1515 1517 1512 1513 1515 1513 1514 1514 1513 1512 1514 1516 1518 1523 1526 1531 1537 1540
1541 1540 1539 1538 1537 1534 1533 1531 1530 1528 1527 1526 1524 1523 1523 1521 1521 1521 1522 1522 1524 1525 1525 1524 1523 1522 1518 1516 1514 1515 1513 1512 1512 1512 1514 1512 1510 1513 1513 1517 1523 1525 1530 1537 1539
1540 1539 1537 1536 1535 1533 1532 1530 1528 1527 1526 1525 1524 1523 1522 1522 1520 1521 1522 1522 1523 1525 1525 1524 1523 1523 1520 1515 1517 1514 1509 1505 1507 1509 1508 1511 1511 1510 1509 1516 1520 1524 1528 1534 1533
1539 1538 1536 1534 1533 1532 1530 1528 1527 1526 1525 1525 1524 1522 1521 1519 1519 1521 1521 1523 1522 1524 1524 1523 1522 1522 1520 1518 1514 1509 1507 1509 1505 1509 1508 1511 1508 1501 1509 1514 1518 1521 1525 1530 1533
1537 1536 1534 1533 1531 1529 1528 1527 1525 1524 1524 1523 1523 1522 1520 1519 1519 1520 1521 1523 1523 1523 1523 1522 1523 1520 1519 1513 1511 1508 1510 1513 1508 1509 1509 1511 1504 1504 1508 1511 1516 1521 1526 1528 1530
1535 1534 1532 1531 1529 1528 1526 1525 1523 1523 1522 1521 1520 1525 1519 1519 1519 1519 1520 1521 1522 1522 1523 1522 1519 1514 1512 1509 1521 1511 1515 1509 1516 1508 1507 1505 1504 1501 1508 1511 1515 1520 1522 1524 1525
1533 1532 1531 1529 1528 1527 1526 1524 1526 1524 1519 1517 1518 1517 1517 1518 1518 1518 1519 1521 1521 1522 1517 1519 1516 1514 1506 1503 1506 1509 1514 1516 1510 1510 1511 1507 1504 1503 1507 1510 1513 1517 1519 1520 1522
1532 1530 1529 1527 1527 1526 1525 1526 1524 1525 1519 1515 1515 1515 1515 1516 1516 1516 1518 1520 1520 1517 1518 1519 1515 1507 1512 1513 1513 1513 1514 1513 1510 1509 1509 1504 1504 1506 1507 1510 1511 1510 1516 1516 1518
1529 1526 1526 1525 1525 1524 1524 1524 1523 1522 1522 1512 1512 1512 1514 1514 1512 1512 1516 1516 1516 1515 1514 1513 1507 1514 1515 1515 1516 1511 1512 1511 1513 1509 1505 1505 1502 1505 1509 1510 1509 1509 1509 1513 1520
1526 1525 1524 1524 1526 1523 1526 1524 1523 1523 1514 1503 1507 1508 1509 1510 1510 1511 1513 1516 1516 1513 1513 1511 1508 1513 1513 1514 1510 1511 1504 1509 1511 1513 1515 1505 1521 1501 1506 1508 1508 1509 1509 1513 1519
1524 1523 1522 1523 1523 1524 1524 1524 1523 1524 1523 1503 1504 1505 1506 1506 1504 1507 1510 1513 1510 1511 1515 1508 1510 1511 1513 1508 1505 1506 1505 1509 1511 1511 1514 1508 1518 1499 1499 1503 1507 1509 1511 1516 1522
1522 1521 1520 1520 1521 1522 1522 1523 1524 1521 1520 1501 1500 1501 1503 1504 1503 1506 1508 1511 1509 1510 1510 1507 1510 1508 1504 1508 1507 1509 1510 1511 1510 1507 1523 1513 1518 1504 1503 1508 1506 1510 1513 1518 1523
1519 1518 1518 1518 1521 1519 1522 1525 1520 1516 1500 1500 1496 1496 1495 1497 1500 1501 1503 1506 1507 1518 1514 1507 1507 1503 1507 1506 1508 1508 1510 1525 1529 1523 1526 1512 1520 1506 1500 1505 1508 1509 1513 1518 1524
1516 1515 1514 1515 1516 1518 1522 1522 1521 1501 1499 1498 1497 1495 1497 1494 1495 1497 1499 1502 1500 1502 1502 1512 1518 1503 1500 1501 1503 1505 1503 1516 1545 1533 1518 1517 1523 1508 1503 1507 1510 1511 1514 1520 1526
1514 1513 1513 1513 1515 1518 1522 1516 1507 1504 1502 1500 1496 1496 1491 1493 1494 1494 1497 1496 1495 1501 1510 1507 1507 1494 1498 1498 1499 1507 1514 1499 1515 1515 1523 1507 1508 1500 1502 1505 1510 1511 1515 1520 1524
1513 1512 1513 1512 1514 1518 1517 1509 1504 1508 1505 1502 1500 1495 1494 1491 1496 1494 1494 1490 1494 1495 1497 1498 1509 1492 1498 1501 1503 1499 1496 1517 1510 1533 1538 1517 1517 1508 1501 1501 1506 1511 1514 1519 1524
1512 1512 1512 1512 1515 1518 1508 1503 1508 1509 1509 1504 1501 1499 1494 1493 1490 1489 1487 1490 1488 1492 1497 1497 1502 1498 1500 1499 1496 1504 1505 1502 1497 1507 1516 1528 1514 1495 1500 1503 1504 1510 1515 1520 1524
1512 1508 1512 1513 1515 1512 1506 1508 1513 1507 1508 1506 1504 1500 1498 1496 1492 1491 1489 1484 1488 1488 1496 1494 1496 1504 1496 1492 1496 1492 1494 1496 1508 1523 1509 1511 1506 1495 1500 1505 1508 1510 1516 1520 1523
1511 1512 1513 1514 1507 1507 1510 1509 1510 1507 1505 1504 1502 1502 1500 1497 1501 1492 1489 1490 1493 1490 1490 1492 1498 1509 1504 1498 1499 1499 1496 1494 1496 1499 1513 1516 1506 1495 1500 1504 1509 1512 1517 1522 1524
1512 1506 1513 1514 1512 1507 1508 1506 1507 1508 1508 1507 1503 1503 1500 1498 1494 1494 1489 1490 1493 1492 1493 1494 1490 1499 1496 1491 1482 1501 1499 1496 1493 1505 1503 1502 1496 1494 1501 1504 1510 1514 1518 1520 1522
1512 1509 1508 1504 1508 1508 1510 1508 1505 1504 1505 1505 1501 1501 1499 1500 1493 1492 1487 1487 1491 1492 1494 1492 1498 1493 1486 1481 1487 1485 1491 1496 1498 1491 1500 1489 1494 1499 1506 1509 1509 1513 1518 1519 1521
1512 1511 1512 1509 1511 1509 1509 1503 1503 1500 1504 1499 1501 1492 1495 1499 1493 1491 1488 1487 1482 1489 1489 1489 1494 1487 1490 1483 1487 1491 1487 1491 1493 1491 1490 1489 1495 1503 1508 1510 1511 1514 1517 1518 1519
1514 1513 1514 1510 1508 1505 1502 1505 1504 1506 1501 1500 1499 1499 1497 1494 1494 1495 1494 1493 1491 1488 1487 1489 1486 1494 1494 1484 1488 1498 1487 1488 1487 1487 1486 1498 1499 1505 1507 1510 1512 1515 1517 1517 1518